TimeEST,TemperatureF,Dew PointF,Humidity,Sea Level PressureIn,VisibilityMPH,Wind Direction,Wind SpeedMPH,Gust SpeedMPH,PrecipitationIn,Events,Conditions,WindDirDegrees,DateUTC
12:15 AM,55.4,50.0,82,29.93,3.0,WSW,16.1,27.6,N/A,Rain,Light Rain,250,2013-01-31 05:15:00
12:35 AM,51.8,48.2,88,29.93,3.0,SSW,5.8,-,0.02,Rain,Light Rain,200,2013-01-31 05:35:00
12:55 AM,51.8,50.0,94,29.93,10.0,Calm,Calm,-,0.03,Rain,Light Rain,0,2013-01-31 05:55:00
1:15 AM,51.8,50.0,94,29.94,10.0,SW,6.9,-,N/A,,Mostly Cloudy,230,2013-01-31 06:15:00
1:35 AM,53.6,50.0,88,29.93,10.0,WSW,4.6,-,N/A,,Mostly Cloudy,250,2013-01-31 06:35:00
1:55 AM,53.6,50.0,88,29.95,10.0,WSW,6.9,-,N/A,,Clear,240,2013-01-31 06:55:00
2:15 AM,53.6,50.0,88,29.96,10.0,WSW,9.2,-,N/A,,Mostly Cloudy,240,2013-01-31 07:15:00
2:35 AM,55.4,48.2,77,29.96,10.0,WSW,6.9,-,N/A,,Overcast,240,2013-01-31 07:35:00
2:55 AM,53.6,48.2,82,29.96,10.0,WSW,5.8,-,N/A,,Overcast,240,2013-01-31 07:55:00
3:15 AM,53.6,48.2,82,29.97,10.0,WSW,6.9,-,N/A,,Mostly Cloudy,240,2013-01-31 08:15:00
3:35 AM,53.6,46.4,77,29.97,10.0,WSW,6.9,-,N/A,,Partly Cloudy,240,2013-01-31 08:35:00
3:55 AM,53.6,46.4,77,29.97,10.0,WSW,8.1,-,N/A,,Clear,250,2013-01-31 08:55:00
4:15 AM,51.8,44.6,76,29.98,10.0,WSW,6.9,-,N/A,,Clear,250,2013-01-31 09:15:00
4:35 AM,51.8,44.6,76,29.99,10.0,West,11.5,17.3,N/A,,Clear,270,2013-01-31 09:35:00
4:55 AM,51.8,44.6,76,29.99,10.0,West,16.1,20.7,N/A,,Clear,280,2013-01-31 09:55:00
5:15 AM,50.0,44.6,82,30.01,10.0,West,10.4,-,N/A,,Partly Cloudy,280,2013-01-31 10:15:00
5:35 AM,50.0,42.8,76,30.01,10.0,West,12.7,-,N/A,,Scattered Clouds,280,2013-01-31 10:35:00
5:55 AM,50.0,42.8,76,30.03,10.0,WNW,10.4,-,N/A,,Scattered Clouds,300,2013-01-31 10:55:00
6:15 AM,48.2,41.0,76,30.05,10.0,WNW,12.7,25.3,N/A,,Partly Cloudy,300,2013-01-31 11:15:00
6:35 AM,48.2,39.2,71,30.07,10.0,WNW,12.7,-,N/A,,Clear,300,2013-01-31 11:35:00
6:50 AM,48.2,39.2,71,30.07,10.0,NW,11.5,-,N/A,,Clear,320,2013-01-31 11:50:00
7:50 AM,46.4,37.4,71,30.11,10.0,WNW,9.2,-,N/A,,Clear,300,2013-01-31 12:50:00
8:50 AM,46.4,33.8,62,30.14,10.0,NNW,8.1,-,N/A,,Clear,330,2013-01-31 13:50:00
10:50 AM,51.8,30.2,44,30.17,10.0,WNW,15.0,-,N/A,,Clear,300,2013-01-31 15:50:00
11:50 AM,53.6,28.4,38,30.16,10.0,WNW,8.1,-,N/A,,Clear,300,2013-01-31 16:50:00
12:50 PM,55.4,28.4,36,30.16,10.0,WNW,15.0,-,N/A,,Clear,300,2013-01-31 17:50:00
1:50 PM,57.2,26.6,31,30.14,10.0,WNW,10.4,-,N/A,,Clear,300,2013-01-31 18:50:00
2:50 PM,57.2,24.8,29,30.14,10.0,WNW,10.4,-,N/A,,Clear,300,2013-01-31 19:50:00
3:50 PM,59.0,26.6,29,30.15,10.0,West,12.7,-,N/A,,Clear,270,2013-01-31 20:50:00
4:50 PM,57.2,24.8,29,30.15,10.0,WNW,12.7,-,N/A,,Clear,290,2013-01-31 21:50:00
5:50 PM,53.6,24.8,33,30.17,10.0,West,10.4,-,N/A,,Clear,270,2013-01-31 22:50:00
6:50 PM,53.6,24.8,33,30.19,10.0,Calm,Calm,-,N/A,,Clear,0,2013-01-31 23:50:00
7:50 PM,39.2,32.0,75,30.21,10.0,Calm,Calm,-,N/A,,Clear,0,2013-02-01 00:50:00
8:15 PM,37.4,32.0,81,30.23,10.0,Calm,Calm,-,N/A,,Clear,0,2013-02-01 01:15:00
8:35 PM,35.6,32.0,87,30.24,10.0,Calm,Calm,-,N/A,,Clear,0,2013-02-01 01:35:00
8:55 PM,35.6,32.0,87,30.24,10.0,Calm,Calm,-,N/A,,Clear,0,2013-02-01 01:55:00
9:15 PM,33.8,32.0,93,30.25,10.0,Calm,Calm,-,N/A,,Clear,0,2013-02-01 02:15:00
9:35 PM,32.0,32.0,100,30.25,10.0,Calm,Calm,-,N/A,,Clear,0,2013-02-01 02:35:00
9:55 PM,32.0,32.0,100,30.26,10.0,Calm,Calm,-,N/A,,Clear,0,2013-02-01 02:55:00
10:15 PM,32.0,32.0,100,30.27,10.0,Calm,Calm,-,N/A,,Clear,0,2013-02-01 03:15:00
10:35 PM,32.0,32.0,100,30.27,10.0,Calm,Calm,-,N/A,,Clear,0,2013-02-01 03:35:00
10:55 PM,32.0,32.0,100,30.27,10.0,Calm,Calm,-,N/A,,Clear,0,2013-02-01 03:55:00
11:15 PM,32.0,32.0,100,30.27,10.0,Calm,Calm,-,N/A,,Clear,0,2013-02-01 04:15:00
11:35 PM,32.0,32.0,100,30.27,10.0,Calm,Calm,-,N/A,,Clear,0,2013-02-01 04:35:00
11:55 PM,32.0,32.0,100,30.27,10.0,Calm,Calm,-,N/A,,Clear,0,2013-02-01 04:55:00